Location: Unspecified
(50.0077°N, 36.2988°E)
Time: 21:40:53
(UTC+00:00)

ISS - Pass Details

Date: 23 September 2020
Orbit: 417 x 420 km, 51.6° (Epoch: 27 October)

Event Time Altitude Azimuth Distance (km) Brightness Sun altitude
Rises 15:50:22 0° 235° (SW) 2,359 1.0 -4.1°
Reaches altitude 10° 15:52:29 10° 230° (SW) 1,498 -0.2 -4.4°
Drops below altitude 10° 15:59:03 10° 77° (ENE) 1,506 -1.5 -5.5°
Enters shadow 15:59:52 - 75° (ENE) 1,832 -1.1 -5.6°
Exits shadow 16:34:11 -71° 71° (ENE) 12,495 3.6 -11.1°
Maximum altitude 17:32:32 68° 353° (N) 459 -3.6 -19.9°
